• In United Kingdom
  • List of Countries
  • For 7 days
  • Water Temperature
  • Satellite Maps
  • Weather Map
  • Weather Widgets
  • user-avatar
    Login

    Hourly Weather Igls

    Today, 23 June, Friday

    Time Temperature Precipitation Wind Pressure Humidity
    00:00 +17°C° 0.7 mm 2 mps 686 mmHg 88%
    01:00 +17°C° 0 mm 2 mps 686 mmHg 92%
    02:00 +17°C° 1.1 mm 2 mps 685 mmHg 91%
    03:00 +16°C° 1.1 mm 2 mps 685 mmHg 91%
    04:00 +16°C° 1.1 mm 2 mps 685 mmHg 91%
    05:00 +18°C° 0.7 mm 2 mps 686 mmHg 89%
    06:00 +19°C° 0.7 mm 2 mps 686 mmHg 86%
    07:00 +23°C° 0 mm 2 mps 687 mmHg 83%
    08:00 +25°C° 0.2 mm 2 mps 687 mmHg 73%
    09:00 +26°C° 0.2 mm 2 mps 688 mmHg 64%
    10:00 +28°C° 0.2 mm 3 mps 688 mmHg 55%
    11:00 +28°C° 0.5 mm 3 mps 688 mmHg 57%
    12:00 +28°C° 0.5 mm 3 mps 688 mmHg 59%
    13:00 +29°C° 0 mm 2 mps 688 mmHg 57%
    14:00 +28°C° 0.5 mm 3 mps 688 mmHg 59%
    15:00 +28°C° 0.5 mm 3 mps 688 mmHg 61%
    16:00 +27°C° 0.5 mm 3 mps 688 mmHg 62%
    17:00 +26°C° 0.3 mm 2 mps 688 mmHg 69%
    18:00 +25°C° 0.3 mm 2 mps 688 mmHg 76%
    19:00 +23°C° 0.3 mm 1 mps 688 mmHg 82%
    20:00 +22°C° 0.1 mm 1 mps 688 mmHg 85%
    21:00 +20°C° 0.1 mm 1 mps 687 mmHg 88%
    22:00 +18°C° 0.1 mm 1 mps 687 mmHg 91%
    23:00 +18°C° 0 mm 1 mps 687 mmHg 92%

    Tomorrow, 24 June, Saturday

    Time Temperature Precipitation Wind Pressure Humidity
    00:00 +18°C° 0 mm 1 mps 687 mmHg 92%
    01:00 +16°C° 0 mm 1 mps 687 mmHg 92%
    02:00 +16°C° 0 mm 1 mps 687 mmHg 92%
    03:00 +15°C° 0 mm 1 mps 687 mmHg 92%
    04:00 +15°C° 0 mm 1 mps 687 mmHg 92%
    05:00 +18°C° 0 mm 1 mps 687 mmHg 86%
    06:00 +18°C° 0 mm 0 mps 688 mmHg 80%
    07:00 +21°C° 0 mm 0 mps 688 mmHg 73%
    08:00 +22°C° 0 mm 0 mps 688 mmHg 66%
    09:00 +26°C° 0 mm 1 mps 689 mmHg 59%
    10:00 +28°C° 0 mm 1 mps 689 mmHg 51%
    11:00 +28°C° 0.1 mm 1 mps 689 mmHg 53%
    12:00 +28°C° 0.1 mm 1 mps 688 mmHg 55%
    13:00 +28°C° 0.1 mm 2 mps 688 mmHg 56%
    14:00 +27°C° 0.5 mm 2 mps 688 mmHg 61%
    15:00 +27°C° 0.5 mm 1 mps 687 mmHg 67%
    16:00 +26°C° 0.5 mm 1 mps 687 mmHg 72%
    17:00 +25°C° 0.8 mm 1 mps 687 mmHg 78%
    18:00 +24°C° 0.8 mm 1 mps 687 mmHg 84%
    19:00 +23°C° 0.8 mm 1 mps 686 mmHg 90%
    20:00 +21°C° 1.1 mm 1 mps 686 mmHg 93%
    21:00 +17°C° 1.1 mm 0 mps 686 mmHg 95%
    22:00 +15°C° 1.1 mm 0 mps 686 mmHg 98%
    23:00 +15°C° 0.4 mm 0 mps 686 mmHg 98%

    Day after tomorrow, 25 June, Sunday

    Time Temperature Precipitation Wind Pressure Humidity
    00:00 +15°C° 0.4 mm 0 mps 686 mmHg 98%
    01:00 +15°C° 0.4 mm 0 mps 686 mmHg 98%
    02:00 +15°C° 0.5 mm 0 mps 685 mmHg 98%
    03:00 +16°C° 0.5 mm 0 mps 685 mmHg 98%
    04:00 +16°C° 0.5 mm 0 mps 685 mmHg 98%
    05:00 +18°C° 1.4 mm 1 mps 685 mmHg 97%
    06:00 +19°C° 1.4 mm 1 mps 685 mmHg 96%
    07:00 +19°C° 1.4 mm 1 mps 685 mmHg 95%
    08:00 +20°C° 1 mm 1 mps 685 mmHg 92%
    09:00 +20°C° 1 mm 1 mps 686 mmHg 89%
    10:00 +20°C° 1 mm 1 mps 686 mmHg 86%
    11:00 +21°C° 0.8 mm 1 mps 686 mmHg 85%
    12:00 +21°C° 0.8 mm 1 mps 686 mmHg 83%
    13:00 +21°C° 0.8 mm 1 mps 686 mmHg 82%
    14:00 +22°C° 0.4 mm 1 mps 686 mmHg 79%
    15:00 +21°C° 0.4 mm 2 mps 685 mmHg 77%
    16:00 +23°C° 0.4 mm 2 mps 685 mmHg 75%
    17:00 +21°C° 0.3 mm 2 mps 685 mmHg 79%
    18:00 +21°C° 0.3 mm 1 mps 685 mmHg 83%
    19:00 +20°C° 0.3 mm 1 mps 685 mmHg 87%
    20:00 +19°C° 0 mm 1 mps 686 mmHg 90%
    21:00 +16°C° 0 mm 1 mps 686 mmHg 93%
    22:00 +14°C° 0 mm 1 mps 686 mmHg 96%
    23:00 +13°C° 0 mm 1 mps 685 mmHg 96%

    26 June, Monday

    Time Temperature Precipitation Wind Pressure Humidity
    00:00 +13°C° 0 mm 1 mps 685 mmHg 96%
    01:00 +13°C° 0 mm 1 mps 685 mmHg 96%
    02:00 +12°C° 0 mm 1 mps 685 mmHg 96%
    03:00 +12°C° 0 mm 1 mps 685 mmHg 96%
    04:00 +11°C° 0 mm 1 mps 684 mmHg 96%
    05:00 +13°C° 0 mm 0 mps 685 mmHg 90%
    06:00 +15°C° 0 mm 0 mps 686 mmHg 85%
    07:00 +18°C° 0 mm 0 mps 686 mmHg 79%
    08:00 +20°C° 0 mm 0 mps 686 mmHg 69%
    09:00 +22°C° 0 mm 0 mps 687 mmHg 59%
    10:00 +26°C° 0 mm 1 mps 687 mmHg 48%
    11:00 +27°C° 0 mm 1 mps 687 mmHg 46%
    12:00 +28°C° 0 mm 1 mps 687 mmHg 45%
    13:00 +29°C° 0 mm 1 mps 686 mmHg 43%
    14:00 +28°C° 0.1 mm 2 mps 686 mmHg 47%
    15:00 +27°C° 0.1 mm 2 mps 686 mmHg 52%
    16:00 +27°C° 0.1 mm 2 mps 685 mmHg 57%
    17:00 +25°C° 0.5 mm 2 mps 685 mmHg 66%
    18:00 +24°C° 0.5 mm 1 mps 685 mmHg 75%
    19:00 +23°C° 0.5 mm 1 mps 685 mmHg 84%
    20:00 +21°C° 0.9 mm 1 mps 685 mmHg 88%
    21:00 +20°C° 0.9 mm 1 mps 684 mmHg 92%
    22:00 +18°C° 0.9 mm 1 mps 684 mmHg 96%
    23:00 +18°C° 0.4 mm 1 mps 684 mmHg 96%

    27 June, Tuesday

    Time Temperature Precipitation Wind Pressure Humidity
    00:00 +17°C° 0.4 mm 2 mps 684 mmHg 96%
    01:00 +17°C° 0.4 mm 2 mps 684 mmHg 96%
    02:00 +17°C° 0.3 mm 2 mps 684 mmHg 96%
    03:00 +17°C° 0.3 mm 2 mps 683 mmHg 95%
    04:00 +17°C° 0.3 mm 2 mps 683 mmHg 95%
    05:00 +18°C° 0.3 mm 2 mps 683 mmHg 93%
    06:00 +19°C° 0.3 mm 1 mps 684 mmHg 91%
    07:00 +20°C° 0.3 mm 1 mps 684 mmHg 90%
    08:00 +22°C° 0.2 mm 1 mps 684 mmHg 82%
    09:00 +23°C° 0.2 mm 1 mps 684 mmHg 75%
    10:00 +24°C° 0.2 mm 1 mps 684 mmHg 68%
    11:00 +25°C° 0.5 mm 1 mps 684 mmHg 67%
    12:00 +26°C° 0.5 mm 1 mps 684 mmHg 65%
    13:00 +26°C° 0.5 mm 1 mps 684 mmHg 64%
    14:00 +26°C° 0.8 mm 1 mps 683 mmHg 65%
    15:00 +26°C° 0.8 mm 1 mps 683 mmHg 66%
    16:00 +26°C° 0.8 mm 1 mps 683 mmHg 66%
    17:00 +25°C° 0.7 mm 1 mps 683 mmHg 73%
    18:00 +24°C° 0.7 mm 1 mps 682 mmHg 79%
    19:00 +23°C° 0.7 mm 1 mps 682 mmHg 85%
    20:00 +22°C° 0 mm 1 mps 682 mmHg 87%
    21:00 +19°C° 0 mm 2 mps 682 mmHg 90%
    22:00 +17°C° 0 mm 2 mps 682 mmHg 92%
    23:00 +17°C° 0 mm 2 mps 681 mmHg 93%

    28 June, Wednesday

    Time Temperature Precipitation Wind Pressure Humidity
    00:00 +17°C° 0 mm 2 mps 681 mmHg 93%
    01:00 +16°C° 0 mm 2 mps 680 mmHg 93%
    02:00 +16°C° 0 mm 2 mps 680 mmHg 93%
    03:00 +16°C° 0 mm 2 mps 680 mmHg 92%
    04:00 +16°C° 0 mm 2 mps 679 mmHg 92%
    05:00 +17°C° 0 mm 2 mps 680 mmHg 88%
    06:00 +19°C° 0 mm 2 mps 680 mmHg 85%
    07:00 +20°C° 0 mm 3 mps 680 mmHg 82%
    08:00 +23°C° 0 mm 2 mps 680 mmHg 73%
    09:00 +25°C° 0 mm 2 mps 680 mmHg 65%
    10:00 +27°C° 0 mm 2 mps 680 mmHg 56%
    11:00 +27°C° 0.3 mm 3 mps 680 mmHg 56%
    12:00 +28°C° 0.3 mm 3 mps 680 mmHg 57%
    13:00 +28°C° 0.3 mm 3 mps 680 mmHg 57%
    14:00 +26°C° 2.1 mm 3 mps 679 mmHg 68%
    15:00 +24°C° 2.1 mm 2 mps 679 mmHg 79%
    16:00 +21°C° 2.1 mm 2 mps 679 mmHg 89%
    17:00 +21°C° 0.4 mm 2 mps 678 mmHg 88%
    18:00 +21°C° 0.4 mm 2 mps 678 mmHg 87%
    19:00 +21°C° 0.4 mm 2 mps 678 mmHg 86%
    20:00 +20°C° 0.4 mm 2 mps 677 mmHg 88%
    21:00 +19°C° 0.4 mm 3 mps 677 mmHg 89%
    22:00 +18°C° 0.4 mm 3 mps 677 mmHg 91%
    23:00 +17°C° 0.1 mm 3 mps 677 mmHg 91%
    Show more